Location: Chippewa Lake
(41.0698°N, 81.9010°W)
Time: 04:33:14
(UTC+00:00)

SL-8 Rocket - Pass Details

Date: 07 October 2021
Orbit: 958 x 990 km, 82.9° (Epoch: 17 October)

Event Time Altitude Azimuth Distance (km) Brightness Sun altitude
Rises 01:28:59 0° 228° (SW) 3,685 7.4 -28.4°
Reaches altitude 10° 01:32:12 10° 244° (WSW) 2,745 6.9 -29.0°
Maximum altitude 01:36:46 21° 291° (WNW) 2,083 6.4 -29.8°
Drops below altitude 10° 01:41:22 10° 338° (NNW) 2,759 6.8 -30.6°
Sets 01:44:38 0° 355° (N) 3,711 7.4 -31.2°
